Weather History for MROC - January, 1999

Change the Weather History Date:

Saturday, January 2, 1999

  Actual Average Record
Temperature  
Mean Temperature 70 °F -  
Max Temperature 78 °F 80 °F 86 °F (2002)
Min Temperature 62 °F 63 °F 62 °F (1997)
Cooling Degree Days 5    
Growing Degree Days 20 (Base 50)    
Moisture  
Dew Point 66 °F    
Average Humidity 82    
Maximum Humidity 94    
Minimum Humidity 57    
Precipitation  
Precipitation 0.00 in 0.01 in - ()
Sea Level Pressure  
Sea Level Pressure 29.95 in    
Wind  
Wind Speed 5 mph ()    
Max Wind Speed 14 mph    
Max Gust Speed -    
Visibility 5.4 miles    
Events Fog , Rain    
Averages and records for this station are not official NWS values.
T = Trace of Precipitation, MM = Missing Value Source: Averaged Metar Reports

Daily Weather History Graph

Daily Weather History Graph

Search for Another Location

Airport or City:

Trip Planner

Search our weather history database for the weather conditions in past years. The results will help you decide how hot, cold, wet, or windy it might be!

Date:

Astronomy

Jan. 02, 1999 Rise Set
Actual Time 5:54 AM CST 5:27 PM CST
Civil Twilight 5:31 AM CST 5:50 PM CST
Nautical Twilight 5:05 AM CST 6:16 PM CST
Astronomical Twilight 4:38 AM CST 6:42 PM CST
Moon 6:16 PM CST (1/2) 6:15 AM CST (1/2)
Length of Visible Light 12h 18m
Length of Day
11h 33m
Waxing Gibbous, 99% of the Moon is Illuminated
Jan 2
Waxing Gibbous
Jan 9
Last Quarter
Jan 17
New
Jan 24
First Quarter
Jan 31
Full

Hourly Weather History & Observations

Time (CST) Temp. Dew Point Humidity Pressure Visibility Wind Dir Wind Speed Gust Speed Precip Events Conditions
12:00 AM 68.0 °F 60.8 °F 78% 29.95 in - ENE 5.8 mph - N/A   Clear
4:00 AM 64.4 °F 60.8 °F 88% 29.92 in - Calm Calm - N/A   Clear
5:00 AM 64.4 °F 60.8 °F 88% 29.92 in - Calm Calm - N/A   Clear
6:00 AM 62.6 °F 59.0 °F 88% 29.95 in - ENE 9.2 mph - N/A   Clear
7:00 AM 68.0 °F 60.8 °F 78% 29.95 in - NE 5.8 mph - N/A   Clear
8:00 AM 75.2 °F 62.6 °F 65% 29.95 in - ESE 6.9 mph - N/A   Clear
9:00 AM 78.8 °F 62.6 °F 57% 29.98 in - ESE 5.8 mph - N/A   Clear
12:00 PM 78.8 °F 68.0 °F 69% 29.95 in 6.2 mi WSW 8.1 mph - N/A   Scattered Clouds
1:00 PM 78.8 °F 68.0 °F 69% 29.92 in 6.2 mi West 10.4 mph - N/A   Mostly Cloudy
2:00 PM 78.8 °F 69.8 °F 74% 30.04 in 6.2 mi WSW 10.4 mph - N/A   Mostly Cloudy
2:27 PM 78.8 °F 69.8 °F 74% 29.89 in 6.2 mi WSW 10.4 mph - N/A   Mostly Cloudy
3:00 PM 75.2 °F 69.8 °F 83% 29.89 in 6.2 mi WSW 13.8 mph - N/A   Mostly Cloudy
4:00 PM 75.2 °F 68.0 °F 78% 29.89 in 6.2 mi WSW 9.2 mph - N/A   Mostly Cloudy
5:00 PM 71.6 °F 68.0 °F 88% 29.92 in 6.2 mi WSW 8.1 mph - N/A   Mostly Cloudy
5:48 PM 69.8 °F 68.0 °F 94% 29.95 in 3.7 mi WSW 4.6 mph - N/A Rain Light Rain
6:00 PM 69.8 °F 66.2 °F 88% 29.95 in 3.7 mi West 4.6 mph - N/A Rain Light Rain
7:00 PM 69.8 °F 66.2 °F 88% 29.98 in 3.7 mi West 5.8 mph - N/A Fog Fog
8:00 PM 69.8 °F 68.0 °F 94% 29.98 in 3.7 mi Calm Calm - N/A Fog Fog
9:00 PM 69.8 °F 68.0 °F 94% 30.01 in 5.0 mi Calm Calm - N/A   Mostly Cloudy
10:00 PM 68.0 °F 66.2 °F 94% 30.01 in 6.2 mi Calm Calm - N/A   Scattered Clouds
11:00 PM 68.0 °F 66.2 °F 94% 29.98 in 6.2 mi Calm Calm - N/A   Partly Cloudy